Time,TemperatureF,DewpointF,PressureIn,WindDirection,WindDirectionDegrees,WindSpeedMPH,WindSpeedGustMPH,Humidity,HourlyPrecipIn,Conditions,Clouds,dailyrainin,SoftwareType,DateUTC
2013-01-28 00:02:00,36.0,35.0,29.82,WNW,298,2.0,4.0,97,0.00,,,0.12,,2013-01-28 06:02:00,
2013-01-28 00:11:00,36.0,35.0,29.82,WNW,298,2.0,4.0,97,0.00,,,0.12,,2013-01-28 06:11:00,
2013-01-28 00:22:00,36.0,35.0,29.82,WNW,298,0.0,2.0,97,0.00,,,0.12,,2013-01-28 06:22:00,
2013-01-28 00:32:00,36.0,35.0,29.83,WNW,298,0.0,0.0,97,0.00,,,0.12,,2013-01-28 06:32:00,
2013-01-28 00:42:00,36.0,35.0,29.83,WNW,298,0.0,0.0,97,0.00,,,0.12,,2013-01-28 06:42:00,
2013-01-28 00:52:00,36.0,35.0,29.82,WNW,298,0.0,1.0,97,0.00,,,0.12,,2013-01-28 06:52:00,
2013-01-28 01:02:00,36.0,35.0,29.83,WNW,298,0.0,0.0,97,0.00,,,0.12,,2013-01-28 07:02:00,
2013-01-28 01:11:00,36.0,35.0,29.83,WNW,298,0.0,0.0,97,0.00,,,0.12,,2013-01-28 07:11:00,
2013-01-28 01:21:00,36.0,35.0,29.83,WNW,298,0.0,2.0,97,0.00,,,0.12,,2013-01-28 07:21:00,
2013-01-28 01:32:00,36.0,35.0,29.83,WNW,291,0.0,3.0,97,0.00,,,0.12,,2013-01-28 07:32:00,
2013-01-28 01:42:00,36.0,35.0,29.83,WNW,291,0.0,3.0,97,0.00,,,0.12,,2013-01-28 07:42:00,
2013-01-28 01:51:00,36.0,35.0,29.83,WNW,291,0.0,3.0,97,0.00,,,0.12,,2013-01-28 07:51:00,
2013-01-28 02:01:00,36.0,35.0,29.84,WNW,291,0.0,3.0,97,0.00,,,0.12,,2013-01-28 08:01:00,
2013-01-28 02:11:00,36.0,35.0,29.84,WNW,291,0.0,3.0,97,0.00,,,0.12,,2013-01-28 08:11:00,
2013-01-28 02:21:00,36.0,35.0,29.84,WNW,291,0.0,0.0,97,0.00,,,0.12,,2013-01-28 08:21:00,
2013-01-28 02:32:00,36.0,35.0,29.84,WNW,291,0.0,0.0,97,0.00,,,0.12,,2013-01-28 08:32:00,
2013-01-28 02:42:00,36.0,35.0,29.84,WNW,291,0.0,0.0,97,0.00,,,0.12,,2013-01-28 08:42:00,
2013-01-28 02:52:00,36.0,35.0,29.85,WNW,291,0.0,0.0,97,0.00,,,0.12,,2013-01-28 08:52:00,
2013-01-28 03:02:00,36.0,35.0,29.84,SSW,212,0.0,6.0,97,0.00,,,0.12,,2013-01-28 09:02:00,
2013-01-28 03:11:00,36.0,35.0,29.84,SSW,212,0.0,6.0,97,0.00,,,0.12,,2013-01-28 09:11:00,
2013-01-28 03:21:00,36.0,35.0,29.84,SSW,196,1.0,3.0,97,0.00,,,0.12,,2013-01-28 09:21:00,
2013-01-28 03:32:00,36.0,35.0,29.84,SSW,213,3.0,5.0,97,0.00,,,0.12,,2013-01-28 09:32:00,
2013-01-28 03:42:00,36.0,35.0,29.84,SSW,213,3.0,5.0,97,0.00,,,0.12,,2013-01-28 09:42:00,
2013-01-28 03:51:00,36.0,35.0,29.84,SW,217,1.0,5.0,98,0.00,,,0.12,,2013-01-28 09:51:00,
2013-01-28 04:02:00,36.0,35.0,29.83,SW,217,0.0,3.0,97,0.00,,,0.12,,2013-01-28 10:02:00,
2013-01-28 04:11:00,36.0,35.0,29.83,SW,217,0.0,3.0,97,0.00,,,0.12,,2013-01-28 10:11:00,
2013-01-28 04:21:00,36.0,35.0,29.84,SW,217,1.0,4.0,97,0.00,,,0.12,,2013-01-28 10:21:00,
2013-01-28 04:32:00,36.0,35.0,29.84,SW,217,0.0,1.0,97,0.00,,,0.11,,2013-01-28 10:32:00,
2013-01-28 04:41:00,36.0,35.0,29.84,SW,217,0.0,1.0,97,0.00,,,0.11,,2013-01-28 10:41:00,
2013-01-28 04:51:00,36.0,35.0,29.84,SW,217,0.0,0.0,98,0.00,,,0.11,,2013-01-28 10:51:00,
2013-01-28 05:02:00,35.0,34.0,29.84,SW,217,0.0,0.0,98,0.00,,,0.11,,2013-01-28 11:02:00,
2013-01-28 05:11:00,35.0,34.0,29.84,SW,217,0.0,0.0,98,0.00,,,0.11,,2013-01-28 11:11:00,
2013-01-28 05:22:00,35.0,34.0,29.84,SW,217,0.0,0.0,97,0.00,,,0.11,,2013-01-28 11:22:00,
2013-01-28 05:32:00,35.0,34.0,29.85,SE,136,1.0,3.0,98,0.00,,,0.05,,2013-01-28 11:32:00,
2013-01-28 05:42:00,35.0,34.0,29.85,SE,136,1.0,3.0,98,0.00,,,0.05,,2013-01-28 11:42:00,
2013-01-28 05:52:00,35.0,34.0,29.84,SSE,167,1.0,6.0,97,0.00,,,0.05,,2013-01-28 11:52:00,
2013-01-28 06:03:00,34.0,34.0,29.84,SE,143,0.0,4.0,98,0.00,,,0.05,,2013-01-28 12:03:00,
2013-01-28 06:12:00,34.0,34.0,29.84,SE,143,0.0,4.0,98,0.00,,,0.05,,2013-01-28 12:12:00,
2013-01-28 06:23:00,34.0,33.0,29.84,SE,141,0.0,3.0,97,0.00,,,0.05,,2013-01-28 12:23:00,
2013-01-28 06:33:00,34.0,33.0,29.84,SE,141,0.0,1.0,97,0.00,,,0.02,,2013-01-28 12:33:00,
2013-01-28 06:42:00,34.0,33.0,29.84,SE,141,0.0,1.0,97,0.00,,,0.02,,2013-01-28 12:42:00,
2013-01-28 06:52:00,34.0,33.0,29.84,ESE,106,3.0,5.0,97,0.00,,,0.02,,2013-01-28 12:52:00,
2013-01-28 07:03:00,34.0,34.0,29.85,SE,127,3.0,9.0,98,0.00,,,0.02,,2013-01-28 13:03:00,
2013-01-28 07:12:00,34.0,34.0,29.85,SE,127,3.0,9.0,98,0.00,,,0.02,,2013-01-28 13:12:00,
2013-01-28 07:23:00,34.0,34.0,29.86,SE,140,3.0,7.0,98,0.00,,,0.02,,2013-01-28 13:23:00,
2013-01-28 07:33:00,34.0,34.0,29.86,SE,140,2.0,4.0,98,0.00,,,0.02,,2013-01-28 13:33:00,
2013-01-28 07:42:00,34.0,34.0,29.86,SE,140,2.0,4.0,98,0.00,,,0.02,,2013-01-28 13:42:00,
2013-01-28 07:52:00,34.0,34.0,29.86,SE,145,0.0,6.0,98,0.00,,,0.02,,2013-01-28 13:52:00,
2013-01-28 08:03:00,34.0,33.0,29.86,SE,145,0.0,0.0,97,0.01,,,0.03,,2013-01-28 14:03:00,
2013-01-28 08:12:00,34.0,33.0,29.86,SE,145,0.0,0.0,97,0.01,,,0.03,,2013-01-28 14:12:00,
2013-01-28 08:22:00,33.0,32.0,29.87,South,178,1.0,4.0,98,0.01,,,0.03,,2013-01-28 14:22:00,
2013-01-28 08:33:00,33.0,32.0,29.87,South,178,0.0,0.0,98,0.01,,,0.03,,2013-01-28 14:33:00,
2013-01-28 08:43:00,33.0,32.0,29.87,South,178,0.0,0.0,98,0.01,,,0.03,,2013-01-28 14:43:00,
2013-01-28 08:52:00,33.0,32.0,29.87,South,178,0.0,0.0,98,0.01,,,0.03,,2013-01-28 14:52:00,
2013-01-28 09:03:00,32.0,31.0,29.87,ESE,107,4.0,9.0,97,0.00,,,0.03,,2013-01-28 15:03:00,
2013-01-28 09:12:00,32.0,31.0,29.87,ESE,107,4.0,9.0,97,0.00,,,0.03,,2013-01-28 15:12:00,
2013-01-28 09:23:00,32.0,32.0,29.87,ESE,105,4.0,9.0,98,0.00,,,0.03,,2013-01-28 15:23:00,
2013-01-28 09:33:00,32.0,31.0,29.86,SE,126,7.0,13.0,97,0.00,,,0.03,,2013-01-28 15:33:00,
2013-01-28 09:43:00,32.0,31.0,29.86,SE,126,7.0,13.0,97,0.00,,,0.03,,2013-01-28 15:43:00,
2013-01-28 09:52:00,32.0,31.0,29.85,SE,126,3.0,11.0,97,0.00,,,0.03,,2013-01-28 15:52:00,
2013-01-28 10:04:00,32.0,32.0,29.85,East,90,4.0,9.0,98,0.00,,,0.03,,2013-01-28 16:04:00,
2013-01-28 10:12:00,32.0,32.0,29.85,East,90,4.0,9.0,98,0.00,,,0.03,,2013-01-28 16:12:00,
2013-01-28 10:22:00,32.0,32.0,29.85,ESE,115,2.0,7.0,98,0.00,,,0.03,,2013-01-28 16:22:00,
2013-01-28 10:32:00,32.0,32.0,29.85,ESE,103,4.0,7.0,98,0.00,,,0.03,,2013-01-28 16:32:00,
2013-01-28 10:43:00,32.0,32.0,29.85,ESE,103,4.0,7.0,98,0.00,,,0.03,,2013-01-28 16:43:00,
2013-01-28 10:52:00,32.0,32.0,29.85,East,89,4.0,7.0,98,0.00,,,0.03,,2013-01-28 16:52:00,
2013-01-28 11:02:00,33.0,32.0,29.85,ESE,105,3.0,6.0,98,0.00,,,0.03,,2013-01-28 17:02:00,
2013-01-28 11:12:00,33.0,32.0,29.85,ESE,105,3.0,6.0,98,0.00,,,0.03,,2013-01-28 17:12:00,
2013-01-28 11:23:00,33.0,32.0,29.85,East,90,4.0,7.0,98,0.00,,,0.03,,2013-01-28 17:23:00,
2013-01-28 11:32:00,33.0,32.0,29.84,ENE,67,1.0,5.0,98,0.00,,,0.03,,2013-01-28 17:32:00,
2013-01-28 11:42:00,33.0,32.0,29.84,ENE,67,1.0,5.0,98,0.00,,,0.03,,2013-01-28 17:42:00,
2013-01-28 11:52:00,33.0,32.0,29.83,East,82,5.0,9.0,98,0.00,,,0.03,,2013-01-28 17:52:00,
2013-01-28 12:03:00,33.0,32.0,29.83,East,85,6.0,9.0,98,0.00,,,0.03,,2013-01-28 18:03:00,
2013-01-28 12:12:00,33.0,32.0,29.83,East,85,6.0,9.0,98,0.00,,,0.03,,2013-01-28 18:12:00,
2013-01-28 12:23:00,34.0,34.0,29.82,East,82,5.0,9.0,98,0.00,,,0.03,,2013-01-28 18:23:00,
2013-01-28 12:33:00,34.0,34.0,29.82,East,98,3.0,7.0,98,0.00,,,0.03,,2013-01-28 18:33:00,
2013-01-28 12:42:00,34.0,34.0,29.82,East,98,3.0,7.0,98,0.00,,,0.03,,2013-01-28 18:42:00,
2013-01-28 12:52:00,35.0,34.0,29.80,East,93,4.0,8.0,98,0.00,,,0.03,,2013-01-28 18:52:00,
2013-01-28 13:02:00,35.0,34.0,29.78,East,86,7.0,10.0,98,0.00,,,0.03,,2013-01-28 19:02:00,
2013-01-28 13:12:00,35.0,34.0,29.78,East,86,7.0,10.0,98,0.00,,,0.03,,2013-01-28 19:12:00,
2013-01-28 13:22:00,36.0,35.0,29.77,ESE,106,4.0,11.0,98,0.00,,,0.03,,2013-01-28 19:22:00,
2013-01-28 13:32:00,36.0,35.0,29.75,East,96,5.0,11.0,98,0.00,,,0.03,,2013-01-28 19:32:00,
2013-01-28 13:42:00,36.0,35.0,29.75,East,96,5.0,11.0,98,0.00,,,0.03,,2013-01-28 19:42:00,
2013-01-28 13:52:00,37.0,36.0,29.74,East,82,7.0,12.0,98,0.00,,,0.03,,2013-01-28 19:52:00,
2013-01-28 14:02:00,37.0,36.0,29.73,ESE,103,4.0,11.0,98,0.00,,,0.03,,2013-01-28 20:02:00,
2013-01-28 14:12:00,37.0,36.0,29.73,ESE,103,4.0,11.0,98,0.00,,,0.03,,2013-01-28 20:12:00,
2013-01-28 14:22:00,38.0,37.0,29.72,East,96,5.0,10.0,98,0.00,,,0.03,,2013-01-28 20:22:00,
2013-01-28 14:33:00,38.0,37.0,29.71,ESE,111,5.0,9.0,98,0.00,,,0.03,,2013-01-28 20:33:00,
2013-01-28 14:42:00,38.0,37.0,29.71,ESE,111,5.0,9.0,98,0.00,,,0.03,,2013-01-28 20:42:00,
2013-01-28 14:52:00,38.0,37.0,29.70,ESE,119,4.0,9.0,98,0.00,,,0.03,,2013-01-28 20:52:00,
2013-01-28 15:03:00,39.0,38.0,29.70,East,90,5.0,9.0,98,0.00,,,0.03,,2013-01-28 21:03:00,
2013-01-28 15:12:00,39.0,38.0,29.70,East,90,5.0,9.0,98,0.00,,,0.03,,2013-01-28 21:12:00,
2013-01-28 15:22:00,39.0,38.0,29.70,ESE,105,4.0,10.0,98,0.00,,,0.03,,2013-01-28 21:22:00,
2013-01-28 15:33:00,39.0,38.0,29.69,East,94,6.0,10.0,98,0.00,,,0.02,,2013-01-28 21:33:00,
2013-01-28 15:43:00,39.0,38.0,29.69,East,94,6.0,10.0,98,0.00,,,0.02,,2013-01-28 21:43:00,
2013-01-28 15:52:00,40.0,39.0,29.68,ESE,103,4.0,10.0,98,0.00,,,0.02,,2013-01-28 21:52:00,
2013-01-28 16:02:00,40.0,39.0,29.68,ESE,115,3.0,11.0,98,0.00,,,0.02,,2013-01-28 22:02:00,
2013-01-28 16:11:00,40.0,39.0,29.68,ESE,115,3.0,11.0,98,0.00,,,0.02,,2013-01-28 22:11:00,
2013-01-28 16:23:00,40.0,40.0,29.67,East,98,3.0,8.0,99,0.00,,,0.02,,2013-01-28 22:23:00,
2013-01-28 16:32:00,41.0,41.0,29.67,East,93,2.0,6.0,99,0.00,,,0.02,,2013-01-28 22:32:00,
2013-01-28 16:42:00,41.0,41.0,29.67,East,93,2.0,6.0,99,0.00,,,0.02,,2013-01-28 22:42:00,
2013-01-28 16:52:00,41.0,41.0,29.66,East,99,2.0,5.0,99,0.00,,,0.02,,2013-01-28 22:52:00,
2013-01-28 17:02:00,41.0,41.0,29.66,East,100,0.0,3.0,99,0.00,,,0.02,,2013-01-28 23:02:00,
2013-01-28 17:12:00,41.0,41.0,29.66,East,100,0.0,3.0,99,0.00,,,0.02,,2013-01-28 23:12:00,
2013-01-28 17:22:00,42.0,42.0,29.66,East,100,1.0,2.0,99,0.00,,,0.02,,2013-01-28 23:22:00,
2013-01-28 17:32:00,42.0,42.0,29.65,East,100,0.0,0.0,99,0.00,,,0.02,,2013-01-28 23:32:00,
2013-01-28 17:42:00,42.0,42.0,29.65,East,100,0.0,0.0,99,0.00,,,0.02,,2013-01-28 23:42:00,
2013-01-28 17:52:00,42.0,42.0,29.65,East,100,0.0,0.0,99,0.00,,,0.02,,2013-01-28 23:52:00,
2013-01-28 18:02:00,42.0,42.0,29.65,East,100,0.0,0.0,99,0.00,,,0.02,,2013-01-29 00:02:00,
2013-01-28 18:12:00,42.0,42.0,29.65,East,100,0.0,0.0,99,0.00,,,0.02,,2013-01-29 00:12:00,
2013-01-28 18:22:00,42.0,42.0,29.65,East,100,0.0,0.0,99,0.00,,,0.02,,2013-01-29 00:22:00,
2013-01-28 18:32:00,42.0,42.0,29.65,East,100,0.0,0.0,99,0.00,,,0.01,,2013-01-29 00:32:00,
2013-01-28 18:42:00,42.0,42.0,29.65,East,100,0.0,0.0,99,0.00,,,0.01,,2013-01-29 00:42:00,
2013-01-28 18:52:00,42.0,42.0,29.64,East,100,0.0,0.0,99,0.00,,,0.01,,2013-01-29 00:52:00,
2013-01-28 19:02:00,41.0,41.0,29.64,NNW,344,1.0,3.0,99,0.00,,,0.01,,2013-01-29 01:02:00,
2013-01-28 19:12:00,41.0,41.0,29.64,NNW,344,1.0,3.0,99,0.00,,,0.01,,2013-01-29 01:12:00,
2013-01-28 19:22:00,41.0,41.0,29.64,NNW,344,1.0,3.0,99,0.00,,,0.01,,2013-01-29 01:22:00,
2013-01-28 19:32:00,40.0,40.0,29.64,NW,306,3.0,5.0,99,0.00,,,0.01,,2013-01-29 01:32:00,
2013-01-28 19:42:00,40.0,40.0,29.64,NW,306,3.0,5.0,99,0.00,,,0.01,,2013-01-29 01:42:00,
2013-01-28 19:52:00,40.0,39.0,29.63,WNW,297,4.0,6.0,98,0.00,,,0.01,,2013-01-29 01:52:00,
2013-01-28 20:02:00,40.0,39.0,29.63,NW,321,1.0,4.0,98,0.00,,,0.01,,2013-01-29 02:02:00,
2013-01-28 20:12:00,40.0,39.0,29.63,NW,321,1.0,4.0,98,0.00,,,0.01,,2013-01-29 02:12:00,
2013-01-28 20:22:00,39.0,39.0,29.62,NNW,337,2.0,4.0,99,0.00,,,0.01,,2013-01-29 02:22:00,
2013-01-28 20:33:00,39.0,39.0,29.62,NNW,339,2.0,4.0,99,0.00,,,0.01,,2013-01-29 02:33:00,
2013-01-28 20:42:00,39.0,39.0,29.62,NNW,339,2.0,4.0,99,0.00,,,0.01,,2013-01-29 02:42:00,
2013-01-28 20:52:00,39.0,39.0,29.62,NNW,327,3.0,6.0,99,0.00,,,0.01,,2013-01-29 02:52:00,
2013-01-28 21:03:00,39.0,38.0,29.61,NW,304,3.0,5.0,98,0.00,,,0.01,,2013-01-29 03:03:00,
2013-01-28 21:12:00,39.0,38.0,29.61,NW,304,3.0,5.0,98,0.00,,,0.01,,2013-01-29 03:12:00,
2013-01-28 21:22:00,39.0,39.0,29.60,NW,317,2.0,6.0,99,0.00,,,0.01,,2013-01-29 03:22:00,
2013-01-28 21:32:00,40.0,40.0,29.60,NW,317,4.0,7.0,99,0.00,,,0.01,,2013-01-29 03:32:00,
2013-01-28 21:42:00,40.0,40.0,29.60,NW,317,4.0,7.0,99,0.00,,,0.01,,2013-01-29 03:42:00,
2013-01-28 21:52:00,40.0,40.0,29.60,NNW,342,3.0,7.0,99,0.00,,,0.01,,2013-01-29 03:52:00,
2013-01-28 22:02:00,40.0,40.0,29.59,North,355,4.0,8.0,99,0.00,,,0.01,,2013-01-29 04:02:00,
2013-01-28 22:11:00,40.0,40.0,29.59,North,355,4.0,8.0,99,0.00,,,0.01,,2013-01-29 04:11:00,
2013-01-28 22:21:00,40.0,40.0,29.59,NW,309,2.0,9.0,99,0.00,,,0.01,,2013-01-29 04:21:00,
2013-01-28 22:32:00,40.0,40.0,29.59,NW,307,2.0,6.0,99,0.00,,,0.01,,2013-01-29 04:32:00,
2013-01-28 22:42:00,40.0,40.0,29.59,NW,307,2.0,6.0,99,0.00,,,0.01,,2013-01-29 04:42:00,
2013-01-28 22:52:00,40.0,40.0,29.58,NNW,332,2.0,7.0,99,0.00,,,0.01,,2013-01-29 04:52:00,
2013-01-28 23:03:00,40.0,40.0,29.58,NW,304,1.0,6.0,99,0.00,,,0.01,,2013-01-29 05:03:00,
2013-01-28 23:12:00,40.0,40.0,29.58,NW,304,1.0,6.0,99,0.00,,,0.01,,2013-01-29 05:12:00,
2013-01-28 23:21:00,40.0,40.0,29.57,NNW,333,3.0,6.0,99,0.00,,,0.01,,2013-01-29 05:21:00,
2013-01-28 23:32:00,40.0,40.0,29.57,NNW,334,1.0,6.0,99,0.00,,,0.01,,2013-01-29 05:32:00,
2013-01-28 23:42:00,40.0,40.0,29.57,NNW,334,1.0,6.0,99,0.00,,,0.01,,2013-01-29 05:42:00,
2013-01-28 23:52:00,40.0,40.0,29.55,NW,309,1.0,7.0,99,0.00,,,0.01,,2013-01-29 05:52:00,